Location: Lake Zurich
(42.1970°N, 88.0930°W)
Time: 08:49:27
(UTC-05:00)

Daily predictions for brighter satellites

Satellite Brightness Start Highest point End
(mag) Time Altitude Azimuth Time Altitude Azimuth Time Altitude Azimuth
FengYun 1-2 T 4.3 19:58:35 10° SSE 20:04:14 85° ENE 20:09:53 10° NNW
CZ-2D R/B 3.5 20:02:07 10° SSE 20:05:51 49° ENE 20:09:36 10° N
NOSS 2-1 (D) 3.3 20:04:38 10° SSW 20:08:27 64° ESE 20:12:46 10° NE
Hubble Space Telescope 3.1 20:07:17 10° SSW 20:08:47 12° S 20:10:17 10° SSE
NOSS 2-1 (C) 3.3 20:05:39 10° SSW 20:09:27 64° ESE 20:13:47 10° NE
ERS-1 Rocket 4.0 20:08:35 10° ESE 20:12:45 27° ENE 20:16:57 10° N
Cosmos 1821 Rocket 3.9 20:07:34 10° S 20:13:37 69° E 20:19:40 10° NNE
Meteor 1-29 4.2 20:11:57 10° N 20:15:17 47° WNW 20:18:37 10° SSW
Cosmos 1633 3.0 20:12:51 10° SSW 20:16:30 68° W 20:20:09 10° N
Cosmos 1605 Rocket 4.4 20:10:40 10° SSE 20:16:34 42° E 20:22:26 10° NNE
Cosmos 1536 3.1 20:12:42 10° SSW 20:16:40 73° W 20:20:42 10° N
Cosmos 1346 Rocket 3.2 20:12:58 10° N 20:16:45 43° ENE 20:20:32 10° SSE
Meteor 2-16 Rocket 4.4 20:15:34 10° S 20:21:33 64° E 20:27:34 10° NNE
NOSS 2-1 (E) 3.4 20:21:32 10° SSW 20:25:26 86° ESE 20:29:57 10° NE
Cosmos 2227 Rocket 2.5 20:21:29 10° NNW 20:27:01 51° ENE 20:32:23 11° SE
Meteor 1-5 Rocket 4.0 20:27:48 10° S 20:33:06 77° E 20:38:33 10° NNE
ALOS 2.5 20:28:43 10° S 20:33:22 72° WSW 20:38:04 10° NNW
FENGYUN 3A 3.8 20:28:45 10° S 20:34:06 78° WSW 20:39:29 10° NNW
Cosmos 1777 Rocket 4.4 20:34:26 10° NNW 20:39:39 66° WSW 20:44:51 10° S
Cosmos 2082 3.8 20:34:07 10° NNW 20:39:41 60° ENE 20:44:32 14° SE
Cosmos 1656 4.4 20:35:42 10° SSE 20:40:33 31° ESE 20:45:22 10° NE
Cosmos 2297 Rocket 2.5 20:37:23 10° NNW 20:42:53 50° ENE 20:47:09 16° SE
Cosmos 2123 Rocket 4.0 20:38:12 10° N 20:44:25 85° E 20:50:35 10° S
Lacrosse 5 3.3 20:43:38 10° NNW 20:48:00 28° NNE 20:51:36 13° E
USA 215 4.4 20:42:21 10° E 20:48:04 34° NNE 20:53:47 10° NW
Cosmos 2208 Rocket 4.0 20:45:49 10° SSW 20:51:07 90° WSW 20:56:33 10° NNE
H-2A R/B 2.9 20:49:24 20° ESE 20:51:15 29° ENE 20:54:50 10° N
Okean 2 4.3 20:50:40 10° NNW 20:54:43 49° W 20:58:43 10° SSW
deb Chang Zheng 4 4.4 20:51:01 10° NE 20:54:58 30° E 20:57:05 21° SE
Cosmos 1626 Rocket 3.6 20:50:37 10° N 20:55:00 63° E 20:58:22 16° SSE
SPOT 5 3.8 20:52:31 20° ESE 20:55:10 32° ENE 20:59:29 10° N
Cosmos 1515 4.1 20:53:42 10° N 20:57:25 44° E 20:59:10 26° SE
Cosmos 1455 Rocket 3.6 20:55:24 10° SSW 20:59:40 60° W 21:03:59 10° N
BREEZE-M DEB (TANK) 4.3 20:56:04 10° SW 21:00:20 77° SE 21:16:42 10° ENE
Cosmos 1975 2.8 20:56:32 10° S 21:00:35 66° E 21:04:40 10° NNE
Cosmos 1602 Rocket 3.5 20:58:28 10° N 21:02:59 77° E 21:06:22 17° SSE
Cosmos 1459 Rocket 4.4 20:59:01 16° SSE 21:03:14 38° E 21:08:48 10° NNE
NOSS 3-4 (A) 4.1 20:57:26 10° NW 21:04:25 69° WSW 21:10:47 15° SSE
NOSS 3-4 (C) 4.1 20:57:32 10° NW 21:04:32 70° WSW 21:10:52 15° SSE
Cosmos 1743 3.9 21:06:26 25° E 21:06:26 25° E 21:09:28 10° NE
H-2A R/B 3.9 21:10:13 13° ENE 21:11:05 13° ENE 21:13:20 10° NNE
Cosmos 1461 2.9 21:07:43 10° NW 21:11:47 68° WSW 21:13:43 28° SSE
Cosmos 1153 Rocket 4.4 21:05:47 10° S 21:11:59 79° E 21:18:09 10° N
Lacrosse 5 rocket 1.0 21:08:34 10° NW 21:12:17 71° NE 21:13:22 42° ESE
YAOGAN 6 3.7 21:12:12 28° ENE 21:12:26 28° ENE 21:15:39 10° N
Cosmos 1066 Rocket 4.3 21:07:13 10° N 21:12:46 59° ENE 21:16:06 25° SSE
Envisat 2.9 21:11:14 21° SSE 21:14:39 76° ENE 21:19:44 10° N
Tiangong 1 1.0 21:13:08 10° W 21:16:13 79° N 21:16:48 54° ENE
CZ-4 DEB 3.5 21:14:53 21° SSW 21:16:42 50° W 21:19:48 10° NNW
MetOp-A 4.5 21:15:54 29° SE 21:18:15 48° ENE 21:23:24 10° N
Cosmos 1937 Rocket 4.0 21:14:10 10° N 21:19:12 44° ENE 21:21:02 32° ESE
Meteor 1-12 Rocket 4.4 21:13:53 10° SSW 21:19:35 78° W 21:25:27 10° N
USA 186 4.4 21:17:37 10° SW 21:19:51 18° W 21:22:02 10° NW
Cosmos 2278 4.2 21:17:19 10° SW 21:22:55 61° WNW 21:28:35 10° NNE
Cosmos 1697 Rocket 2.8 21:17:34 10° S 21:23:01 51° ESE 21:28:29 10° NE
OTV 4 2.0 21:21:54 10° WSW 21:23:53 25° SW 21:23:53 25° SW
Cosmos 1802 Rocket 4.2 21:20:59 23° SSE 21:24:44 50° E 21:30:54 10° NNE
Cosmos 2150 Rocket 4.0 21:20:10 10° NNW 21:25:19 65° ENE 21:27:17 37° SE
DELTA 2 R/B (1) 3.6 21:22:19 10° W 21:27:48 62° S 21:29:48 38° SE
SPOT 1/Viking Rocket 4.2 21:28:06 34° ESE 21:29:25 39° ENE 21:34:15 10° N
Cosmos 1939 Rocket 3.3 21:28:30 25° S 21:30:45 62° W 21:34:53 10° NNW
ASTEX 1 3.7 21:27:15 10° NNE 21:32:05 48° E 21:33:04 42° SE
Cosmos 2084 3.5 21:28:40 10° NNW 21:32:41 60° NE 21:33:22 51° E
Cosmos 220 Rocket 4.2 21:29:51 10° NNW 21:34:02 63° WSW 21:35:36 35° S
Iridium 4 Rocket 4.0 21:30:06 10° N 21:35:13 55° W 21:39:24 13° SSW
Cosmos 2369 4.4 21:30:20 10° SW 21:35:53 54° WNW 21:41:29 10° NNE
Cosmos 990 Rocket 4.4 21:31:39 10° N 21:36:43 46° ENE 21:37:48 40° E
Geosat FO 4.5 21:34:03 10° NNE 21:37:45 86° ESE 21:38:49 44° SSW
Cosmos 1606 Rocket 3.9 21:38:14 44° E 21:38:14 44° E 21:42:11 10° NNE
Terra 3.5 21:40:15 19° ENE 21:40:15 19° ENE 21:43:22 10° NNE
OAO 2 Rocket 4.1 21:38:47 10° WSW 21:42:57 34° S 21:42:57 34° S
Cosmos 1980 Rocket 2.4 21:44:07 45° SE 21:44:40 47° ESE 21:50:06 10° NE
CZ-4B R/B 4.2 21:40:37 10° NNE 21:44:01 33° ENE 21:44:01 33° ENE
Cosmos 2016 Rocket 3.9 21:43:28 37° SSE 21:45:46 60° E 21:51:51 10° NNE
ARGOS 3.3 21:49:32 49° ESE 21:50:30 56° ENE 21:55:46 10° N
ERS-1 Rocket 4.2 21:47:32 14° SSW 21:51:21 37° W 21:56:01 10° NNW
Cosmos 1898 Rocket 3.7 21:47:52 10° NNW 21:53:10 69° WSW 21:54:53 42° S
Meteor 1-21 4.2 21:49:37 10° N 21:55:25 76° E 21:56:53 52° SSE
Cosmos 2173 Rocket 4.1 21:53:55 18° SSW 21:58:48 79° W 22:05:11 10° N
RESURS DK-1 2.4 21:55:26 10° NNW 21:59:18 73° NNE 21:59:18 73° NNE
Cosmos 1666 4.5 22:02:40 23° NNE 22:02:40 23° NNE 22:04:16 10° NNE
Cosmos 1726 Rocket 3.7 22:03:16 60° NE 22:03:16 60° NE 22:07:00 10° NNE
Cosmos 1763 Rocket 3.6 22:04:53 55° ENE 22:04:53 55° ENE 22:09:14 10° NNE
Cosmos 2061 Rocket 4.2 22:00:39 18° SSW 22:05:28 71° W 22:11:45 10° N
Cosmos 2100 Rocket 4.4 22:02:00 13° SSW 22:07:39 62° W 22:13:51 10° N
SL-19 R/B 4.0 22:02:08 10° NNE 22:07:42 82° ESE 22:08:46 59° S
Cosmos 2227 Rocket 4.1 22:06:20 10° NW 22:10:40 23° W 22:14:14 13° SW
Tsikada Rocket 4.0 22:05:16 10° N 22:11:40 64° E 22:12:34 58° ESE
MetOp-B 4.5 22:10:11 43° SSW 22:11:42 60° WSW 22:17:01 10° NNW
Cosmos 1864 Rocket 4.3 22:12:32 62° SE 22:13:07 65° E 22:19:11 10° NNE
Cosmos 2263 Rocket 3.7 22:10:04 10° N 22:14:21 22° NE 22:14:41 22° ENE
Cosmos 1825 Rocket 4.1 22:10:46 10° NNW 22:15:06 53° W 22:15:24 52° WSW
Cosmos 2322 Rocket 3.9 22:18:33 19° NE 22:18:33 19° NE 22:20:27 10° NE
Cosmos 967 Rocket 4.4 22:11:00 10° NNW 22:17:23 74° ENE 22:18:16 64° ESE
Cosmos 2360 4.4 22:19:45 56° ENE 22:19:45 56° ENE 22:24:33 10° NNE
Cosmos 1953 Rocket 4.0 22:19:02 10° NNW 22:23:10 58° WNW 22:23:10 58° WNW
Cosmos 841 Rocket 3.6 22:24:40 67° NE 22:24:40 67° NE 22:29:13 10° NNE
Milstar 3 Cent rocket 4.2 22:08:59 10° WSW 22:24:21 38° SSW 22:26:27 36° S
Meteor 2-9 Rocket 4.0 22:24:45 80° ENE 22:24:45 80° ENE 22:30:06 10° NNE
Cosmos 2297 Rocket 4.0 22:22:08 10° NW 22:26:33 24° WSW 22:28:59 18° SW
Cosmos 1340 4.1 22:23:37 10° NNW 22:26:23 36° WNW 22:26:23 36° WNW
H-2A R/B 3.9 22:26:31 21° WSW 22:27:16 22° W 22:30:32 10° NW
Cosmos 2227 4.1 22:22:10 10° NNW 22:27:57 89° ENE 22:28:06 85° SE
USA 215 3.1 22:29:23 63° ESE 22:30:32 82° NE 22:37:06 10° NW
Lacrosse 5 2.1 22:26:19 10° NW 22:30:48 64° W 22:30:48 64° W
SPOT 5 4.4 22:31:47 27° SW 22:33:10 31° W 22:37:32 10° NW
BREEZE-M TANK 4.2 22:34:40 10° WNW 22:38:58 29° WSW 22:38:58 29° WSW
Cosmos 1816 Rocket 4.4 22:34:07 10° N 22:40:32 83° E 22:40:43 82° ESE
Cosmos 1725 Rocket 4.0 22:42:15 62° SW 22:43:12 73° W 22:49:26 10° N
H-2A R/B 2.4 22:50:51 58° NNW 22:50:51 58° NNW 22:54:50 10° NNW
GEOS 3 Rocket 4.1 22:50:43 10° NNE 22:55:45 57° NW 22:56:08 55° WNW
SL-16 R/B 3.2 23:11:47 39° NNE 23:11:47 39° NNE 23:15:15 10° NNE
Cosmos 2233 Rocket 4.1 23:12:31 68° NW 23:12:31 68° NW 23:18:22 10° N
Terra 3.3 23:19:09 34° NW 23:19:09 34° NW 23:22:07 10° NNW
Meteor 2-5 Rocket 4.3 23:12:14 10° N 23:16:58 59° N 23:16:58 59° N
Cosmos 1980 Rocket 4.0 23:25:46 18° W 23:28:53 28° NW 23:33:44 10° N
Cosmos 2360 Rocket 4.1 23:32:37 21° NE 23:32:37 21° NE 23:34:27 10° NE
